TimeEST,TemperatureF,Dew PointF,Humidity,Sea Level PressureIn,VisibilityMPH,Wind Direction,Wind SpeedMPH,Gust SpeedMPH,PrecipitationIn,Events,Conditions,WindDirDegrees,DateUTC
12:53 AM,62.1,54.0,75,30.08,10.0,Calm,Calm,-,N/A,,Clear,0,2013-02-05 05:53:00
1:53 AM,61.0,54.0,78,30.07,10.0,Calm,Calm,-,N/A,,Clear,0,2013-02-05 06:53:00
2:53 AM,60.1,55.0,83,30.06,10.0,NNW,3.5,-,N/A,,Clear,340,2013-02-05 07:53:00
3:53 AM,59.0,54.0,83,30.05,10.0,Calm,Calm,-,N/A,,Partly Cloudy,0,2013-02-05 08:53:00
4:53 AM,59.0,55.0,87,30.05,10.0,Calm,Calm,-,N/A,,Scattered Clouds,0,2013-02-05 09:53:00
5:53 AM,57.9,54.0,87,30.06,10.0,Calm,Calm,-,N/A,,Scattered Clouds,0,2013-02-05 10:53:00
6:53 AM,60.8,53.6,77,30.06,10.0,NNE,4.6,-,N/A,,Scattered Clouds,20,2013-02-05 11:53:00
7:53 AM,62.1,54.0,75,30.07,10.0,Variable,3.5,-,N/A,,Scattered Clouds,0,2013-02-05 12:53:00
8:53 AM,69.1,54.0,58,30.09,10.0,NNE,3.5,-,N/A,,Scattered Clouds,20,2013-02-05 13:53:00
9:53 AM,73.0,55.9,55,30.10,10.0,Variable,3.5,-,N/A,,Partly Cloudy,0,2013-02-05 14:53:00
10:53 AM,75.9,57.9,54,30.09,10.0,ESE,9.2,-,N/A,,Partly Cloudy,120,2013-02-05 15:53:00
11:53 AM,77.0,59.0,54,30.09,10.0,Variable,4.6,-,N/A,,Scattered Clouds,0,2013-02-05 16:53:00
12:53 PM,78.1,57.9,50,30.06,10.0,SSE,10.4,-,N/A,,Scattered Clouds,150,2013-02-05 17:53:00
1:53 PM,75.9,57.9,54,30.04,10.0,SE,6.9,-,N/A,,Mostly Cloudy,130,2013-02-05 18:53:00
2:53 PM,73.9,59.0,59,30.03,10.0,ESE,9.2,-,N/A,,Mostly Cloudy,120,2013-02-05 19:53:00
3:53 PM,75.0,60.1,60,30.03,10.0,SE,9.2,-,0.00,,Mostly Cloudy,140,2013-02-05 20:53:00
4:53 PM,75.0,61.0,62,30.03,10.0,SE,5.8,-,N/A,,Scattered Clouds,140,2013-02-05 21:53:00
5:53 PM,73.0,62.1,68,30.02,10.0,SSE,8.1,-,N/A,,Scattered Clouds,160,2013-02-05 22:53:00
6:53 PM,72.0,62.1,71,30.03,10.0,SE,4.6,-,N/A,,Scattered Clouds,140,2013-02-05 23:53:00
7:53 PM,71.1,63.0,75,30.05,10.0,SSE,3.5,-,N/A,,Mostly Cloudy,160,2013-02-06 00:53:00
8:53 PM,71.1,63.0,75,30.05,10.0,SE,3.5,-,N/A,,Mostly Cloudy,140,2013-02-06 01:53:00
9:53 PM,71.1,63.0,75,30.06,10.0,Variable,4.6,-,N/A,,Scattered Clouds,0,2013-02-06 02:53:00
10:53 PM,70.0,64.0,81,30.07,10.0,Calm,Calm,-,N/A,,Partly Cloudy,0,2013-02-06 03:53:00
11:53 PM,69.1,63.0,81,30.06,10.0,Calm,Calm,-,N/A,,Mostly Cloudy,0,2013-02-06 04:53:00